Location: Audinghen
(50.8518°N, 1.6129°E)
Time: 17:05:09
(UTC+00:00)

Cosmos 158 Rocket - Pass Details

Date: 07 August 2020
Orbit: 698 x 794 km, 74.0° (Epoch: 25 September)

Event Time Altitude Azimuth Distance (km) Brightness Sun altitude
Rises 02:47:10 0° 331° (NNW) 3,272 7.5 -13.5°
Reaches altitude 10° 02:49:37 10° 325° (NW) 2,350 6.7 -13.2°
Maximum altitude 02:54:41 44° 255° (WSW) 1,082 4.4 -12.7°
Drops below altitude 10° 02:59:46 10° 184° (S) 2,357 6.1 -12.1°
Enters shadow 03:00:24 - 182° (S) 2,591 6.3 -12.0°
